Zurück zum Katalog

SL-12 R/B

AUX MOTOR

AktivHEO
NORAD 19170·ROCKET BODY·🇷🇺 Russia

Gestartet May 21, 1988 von Baikonur Cosmodrome

Loading…

Nächste Überflüge (nächste 24 Stunden)

TLE

AktuellSource: Space-Track

Epoche: Sep 14, 2026, 12:29 UTC

1 19170U 88043H   26257.52079107  .00000186  00000-0  42291-3 0  9990
2 19170  64.8927 259.0990 5727968  18.8626 355.7587  4.25134635593858

Verfolge SL-12 R/B in Echtzeit mit AllMySat

Download on the App Store